#timestamp,LO_Frequency,Hit,StdDev 
1710133215.4,286046998.5,N
1710133235.2,286047000.4,N
1710133255.1,286047001.5,N
1710133256.0,286047001.5,N
1710133275.8,286047001.6,N
1710133295.7,286046997.9,N
1710133315.5,286046998.8,N
1710133335.3,286046995.0,N
1710133355.2,286046993.6,N
1710133375.0,286046992.7,N
1710133375.9,286046992.7,N
1710133395.8,286046994.1,N
1710133415.6,286046996.0,N
1710133435.4,286046997.5,N
1710133455.3,286046997.9,N
1710133475.1,286046997.0,N
1710133495.9,286047001.8,N
1710133515.7,286047002.7,N
1710133535.5,286047004.0,N
1710133555.4,286047001.8,N
1710133575.2,286047002.4,N
1710133595.0,286047007.5,N
1710133595.9,286047007.5,N
1710133615.8,286047005.3,N
1710133635.6,286047004.7,N
1710133655.5,286047005.5,N
1710133675.3,286047005.2,N
1710133695.1,286047002.6,N
1710133715.9,286047000.9,N
1710133735.7,286046998.6,N
1710133755.5,286046997.2,N
1710133775.4,286047001.0,N
1710133795.2,286046996.5,N
1710133815.1,286047000.9,N
1710133816.0,286047000.9,N
1710133835.8,286046995.8,N
1710133855.6,286046994.4,N
1710133875.5,286046990.9,N
1710133895.3,286046992.6,N
1710133915.2,286046996.0,N
1710133935.9,286046993.6,N
1710133955.7,286046990.4,N
1710133975.6,286046989.3,N
1710133995.4,286046985.8,N
1710134015.2,286046983.8,N
1710134035.1,286046982.4,N
1710134036.0,286046982.4,N
1710134055.8,286046983.1,N
1710134075.7,286046982.3,N
1710134095.5,286046980.4,N
1710134115.3,286046976.0,N
1710134135.2,286046977.3,N
1710134155.0,286046981.8,N
1710134155.9,286046981.8,N
1710134175.8,286046979.1,N
1710134195.6,286046983.2,N
1710134215.4,286046983.1,N
1710134235.3,286046975.7,N
1710134255.1,286046976.5,N
1710134275.9,286046978.8,N
1710134295.7,286046975.5,Y
1710134315.5,286046986.0,P
1710134335.4,286046988.1,P
1710134355.2,286046987.9,P
1710134375.1,286046986.6,Y
1710134376.0,286046986.6,P
1710134395.8,286047002.4,P
1710134415.6,286046998.7,N
1710134435.5,286046998.7,N
1710134455.3,286046998.0,N
1710134475.1,286046997.6,N
1710134495.9,286046998.0,N
1710134515.7,286046993.8,N
1710134535.6,286046994.5,N
1710134555.4,286046999.3,N
1710134575.2,286046999.4,N
1710134595.1,286046991.8,N
1710134596.0,286046991.8,N
1710134615.8,286046996.1,N
1710134635.7,286046995.8,N
1710134655.5,286046995.6,N
1710134675.3,286046997.5,N
1710134695.2,286046999.6,N
1710134715.9,286046997.3,N
1710134735.7,286046995.8,N
1710134755.6,286046991.1,N
1710134775.4,286046987.9,Y
1710134795.3,286046992.2,P
1710134815.1,286046994.6,P
1710134816.0,286046994.6,P
1710134835.8,286046991.0,Y
1710134855.7,286046986.3,P
1710134875.5,286047000.2,N
1710134895.3,286046997.1,N
1710134915.2,286046997.7,N
1710134935.0,286046997.2,N
1710134935.9,286046997.2,N
1710134955.8,286046995.0,N
1710134975.6,286047000.4,N
1710134995.4,286047005.8,N
1710135015.3,286047004.8,N
1710135035.1,286047010.7,N
1710135055.9,286047010.5,N
1710135075.7,286047008.9,N
1710135095.5,286047007.1,N
1710135115.4,286047005.9,N
1710135135.2,286047004.5,N
1710135155.0,286047012.0,N
1710135155.9,286047012.0,N
1710135175.8,286047010.0,N
1710135195.6,286047006.5,N
1710135215.5,286047008.5,N
1710135235.3,286047004.7,N
1710135255.1,286047006.4,N
1710135275.9,286047003.6,N
1710135295.7,286047000.4,N
1710135315.5,286047002.4,N
1710135335.4,286047004.2,N
1710135355.2,286047007.6,N
1710135375.1,286047006.6,N
1710135376.0,286047006.6,N
1710135395.8,286047010.6,N
1710135415.6,286047011.7,N
1710135435.5,286047016.2,Y
1710135455.3,286047011.8,P
1710135475.1,286047010.9,P
1710135495.9,286047013.8,P
1710135515.7,286047013.1,Y
1710135535.6,286047005.3,P
1710135555.4,286047006.8,N
1710135575.2,286047006.6,P
1710135595.1,286047003.4,N
1710135596.0,286047003.4,N
1710135615.8,286047003.4,N
1710135635.6,286047004.0,N
1710135655.5,286047003.8,N
1710135675.3,286046999.4,N
1710135695.2,286046995.3,N
1710135715.9,286046995.5,N
1710135735.7,286046997.9,N
1710135755.6,286046995.6,N
1710135775.4,286046995.6,N
1710135795.3,286046997.4,N
1710135815.1,286047000.8,N
1710135816.0,286047000.8,N
1710135835.8,286046999.6,N
1710135855.7,286047000.1,N
1710135875.5,286047005.5,N
1710135895.3,286047006.2,N
1710135915.2,286047006.7,N
1710135935.0,286047007.8,N
1710135935.9,286047007.8,N
1710135955.8,286047012.7,N
1710135975.6,286047015.1,Y
1710135995.4,286047012.8,P
1710136015.3,286047012.5,N
1710136035.1,286047016.8,P
1710136055.8,286047018.7,Y
1710136075.7,286047011.9,P
1710136095.5,286047009.3,P
1710136115.4,286047011.6,P
1710136135.2,286047016.6,Y
1710136155.0,286047003.8,P
1710136155.9,286047003.8,N
1710136175.8,286047003.7,N
1710136195.6,286047003.2,N
1710136215.5,286047005.2,N
1710136235.3,286047002.9,N
1710136255.1,286047003.4,N
1710136275.9,286047009.1,Y
1710136295.7,286047007.3,P
1710136315.5,286047007.9,P
1710136335.4,286047012.3,P
1710136355.2,286047011.0,Y
1710136375.1,286047003.9,P
1710136376.0,286047003.9,N
1710136395.8,286047003.1,N
1710136415.6,286047009.0,Y
1710136435.5,286047005.3,P
1710136455.3,286047004.2,P
1710136475.1,286047001.8,P
1710136495.9,286047004.4,Y
1710136515.7,286046997.2,P
1710136535.6,286046991.9,N
1710136555.4,286046987.2,N
1710136575.2,286046985.9,N
1710136595.1,286046981.2,N
1710136596.0,286046981.2,N
1710136615.8,286046982.7,N
1710136635.7,286046981.7,N
1710136655.5,286046983.0,N
1710136675.3,286046983.0,N
1710136695.2,286046982.2,N
1710136715.9,286046986.7,N
1710136735.7,286046986.2,N
1710136755.6,286046985.5,N
1710136775.4,286046986.2,N
1710136795.2,286046988.4,N
